TimeCDT,TemperatureF,Dew PointF,Humidity,Sea Level PressureIn,VisibilityMPH,Wind Direction,Wind SpeedMPH,Gust SpeedMPH,PrecipitationIn,Events,Conditions,WindDirDegrees,DateUTC
12:15 AM,41.0,39.2,93,30.16,10.0,Calm,Calm,-,N/A,,Clear,0,2014-05-15 05:15:00
12:35 AM,41.0,39.2,93,30.16,10.0,Calm,Calm,-,N/A,,Clear,0,2014-05-15 05:35:00
12:55 AM,41.0,39.2,93,30.15,10.0,Calm,Calm,-,N/A,,Clear,0,2014-05-15 05:55:00
1:15 AM,41.0,39.2,93,30.15,10.0,Calm,Calm,-,N/A,,Clear,0,2014-05-15 06:15:00
1:35 AM,41.0,39.2,93,30.14,10.0,Calm,Calm,-,N/A,,Clear,0,2014-05-15 06:35:00
1:55 AM,41.0,39.2,93,30.14,10.0,Calm,Calm,-,N/A,,Clear,0,2014-05-15 06:55:00
2:15 AM,39.2,37.4,93,30.14,10.0,Calm,Calm,-,N/A,,Partly Cloudy,0,2014-05-15 07:15:00
2:35 AM,39.2,39.2,100,30.13,10.0,Calm,Calm,-,N/A,,Clear,0,2014-05-15 07:35:00
2:55 AM,39.2,39.2,100,30.12,10.0,Calm,Calm,-,N/A,,Scattered Clouds,0,2014-05-15 07:55:00
3:15 AM,39.2,37.4,93,30.13,10.0,Calm,Calm,-,N/A,,Partly Cloudy,0,2014-05-15 08:15:00
3:35 AM,39.2,37.4,93,30.12,10.0,Calm,Calm,-,N/A,,Clear,0,2014-05-15 08:35:00
3:55 AM,39.2,37.4,93,30.12,10.0,Calm,Calm,-,N/A,,Clear,0,2014-05-15 08:55:00
4:15 AM,39.2,39.2,100,30.12,10.0,Calm,Calm,-,N/A,,Clear,0,2014-05-15 09:15:00
4:35 AM,39.2,39.2,100,30.12,10.0,Calm,Calm,-,N/A,,Clear,0,2014-05-15 09:35:00
4:55 AM,41.0,39.2,93,30.13,10.0,Calm,Calm,-,N/A,,Clear,0,2014-05-15 09:55:00
5:15 AM,39.2,39.2,100,30.13,10.0,Calm,Calm,-,N/A,,Scattered Clouds,0,2014-05-15 10:15:00
5:35 AM,41.0,39.2,93,30.13,10.0,Calm,Calm,-,N/A,,Scattered Clouds,0,2014-05-15 10:35:00
5:55 AM,41.0,39.2,93,30.13,10.0,SW,4.6,-,N/A,,Scattered Clouds,230,2014-05-15 10:55:00
6:15 AM,41.0,39.2,93,30.13,10.0,Calm,Calm,-,N/A,,Mostly Cloudy,0,2014-05-15 11:15:00
6:35 AM,41.0,39.2,93,30.14,10.0,Calm,Calm,-,N/A,,Scattered Clouds,0,2014-05-15 11:35:00
6:45 AM,41.0,39.2,93,30.14,10.0,SSW,5.8,-,N/A,,Scattered Clouds,200,2014-05-15 11:45:00
7:45 AM,48.2,44.6,87,30.16,10.0,SSW,8.1,-,N/A,,Scattered Clouds,210,2014-05-15 12:45:00
8:45 AM,55.4,42.8,63,30.14,10.0,WSW,8.1,16.1,N/A,,Partly Cloudy,240,2014-05-15 13:45:00
9:45 AM,55.4,44.6,67,30.14,10.0,SW,9.2,17.3,N/A,,Partly Cloudy,230,2014-05-15 14:45:00
11:45 AM,60.8,46.4,59,30.14,10.0,NW,9.2,-,N/A,,Partly Cloudy,320,2014-05-15 16:45:00
12:45 PM,62.6,44.6,52,30.14,10.0,WNW,5.8,-,N/A,,Mostly Cloudy,290,2014-05-15 17:45:00
2:51 PM,64.4,41.0,42,30.11,10.0,NW,13.8,23.0,N/A,,Mostly Cloudy,310,2014-05-15 19:51:00
3:46 PM,62.6,37.4,39,30.10,10.0,WNW,21.9,33.4,N/A,,Mostly Cloudy,300,2014-05-15 20:46:00
4:46 PM,62.6,32.0,32,30.09,10.0,West,15.0,24.2,N/A,,Mostly Cloudy,280,2014-05-15 21:46:00
6:55 PM,57.2,28.4,33,30.10,10.0,NW,17.3,27.6,N/A,,Partly Cloudy,310,2014-05-15 23:55:00
7:50 PM,55.4,28.4,36,30.13,10.0,NW,12.7,18.4,N/A,,Partly Cloudy,310,2014-05-16 00:50:00
8:46 PM,51.8,30.2,44,30.14,10.0,NW,8.1,-,N/A,,Clear,310,2014-05-16 01:46:00
9:15 PM,46.4,32.0,57,30.15,10.0,Calm,Calm,-,N/A,,Clear,0,2014-05-16 02:15:00
9:35 PM,46.4,28.4,50,30.15,10.0,Calm,Calm,-,N/A,,Clear,0,2014-05-16 02:35:00
9:55 PM,44.6,32.0,61,30.16,10.0,Calm,Calm,-,N/A,,Clear,0,2014-05-16 02:55:00
10:15 PM,42.8,32.0,66,30.16,10.0,Calm,Calm,-,N/A,,Clear,0,2014-05-16 03:15:00
10:35 PM,41.0,32.0,70,30.16,10.0,Calm,Calm,-,N/A,,Clear,0,2014-05-16 03:35:00
10:55 PM,41.0,35.6,81,30.15,10.0,Calm,Calm,-,N/A,,Clear,0,2014-05-16 03:55:00
11:15 PM,39.2,35.6,87,30.15,10.0,Calm,Calm,-,N/A,,Clear,0,2014-05-16 04:15:00
11:35 PM,39.2,35.6,87,30.15,10.0,SW,3.5,-,N/A,,Clear,230,2014-05-16 04:35:00
11:55 PM,39.2,35.6,87,30.14,10.0,SW,3.5,-,N/A,,Clear,230,2014-05-16 04:55:00